GEFSNE_prec_meanprecacc_024.txt.gz
Total_Precipitation_Accumulation
0.13 0.12 0.11 0.09 0.06 0.03 0.02 0.01 0.01 0.01 0.01 0.00 0.01 0.02 0.03 0.04 0.06 0.05 0.05 0.06 0.05 0.05 0.06 0.07 0.06 0.04 0.03 0.02 0.02 0.05 0.15 0.28 0.37 0.38 0.35 0.28 0.24 0.24
0.13 0.13 0.13 0.12 0.09 0.06 0.03 0.02 0.01 0.01 0.00 0.00 0.01 0.01 0.01 0.02 0.02 0.02 0.02 0.02 0.03 0.05 0.06 0.05 0.06 0.06 0.05 0.03 0.02 0.03 0.09 0.17 0.28 0.37 0.40 0.39 0.35 0.32
0.16 0.14 0.13 0.12 0.11 0.08 0.06 0.03 0.01 0.01 0.01 0.00 0.00 0.01 0.01 0.01 0.01 0.01 0.01 0.02 0.03 0.04 0.04 0.03 0.03 0.03 0.04 0.02 0.02 0.04 0.08 0.12 0.19 0.32 0.46 0.56 0.56 0.49
0.20 0.18 0.16 0.14 0.11 0.08 0.06 0.04 0.03 0.02 0.02 0.01 0.01 0.01 0.01 0.01 0.01 0.00 0.00 0.01 0.01 0.01 0.02 0.02 0.02 0.03 0.04 0.04 0.02 0.03 0.04 0.08 0.15 0.25 0.37 0.49 0.61 0.68
0.22 0.20 0.18 0.16 0.12 0.08 0.04 0.03 0.04 0.03 0.03 0.03 0.02 0.02 0.02 0.01 0.00 0.00 0.00 0.00 0.01 0.01 0.02 0.03 0.05 0.06 0.06 0.06 0.04 0.04 0.03 0.05 0.08 0.14 0.23 0.32 0.40 0.50
0.27 0.23 0.20 0.18 0.14 0.11 0.07 0.05 0.04 0.03 0.03 0.04 0.04 0.04 0.04 0.02 0.02 0.02 0.01 0.00 0.01 0.01 0.01 0.01 0.03 0.06 0.07 0.07 0.06 0.05 0.05 0.06 0.07 0.09 0.15 0.18 0.22 0.26
0.32 0.31 0.28 0.26 0.22 0.16 0.11 0.07 0.05 0.04 0.03 0.03 0.03 0.03 0.03 0.04 0.04 0.04 0.04 0.02 0.01 0.01 0.01 0.01 0.02 0.02 0.04 0.08 0.11 0.11 0.10 0.08 0.09 0.11 0.13 0.17 0.19 0.18
0.27 0.27 0.25 0.23 0.22 0.22 0.17 0.10 0.07 0.05 0.04 0.04 0.03 0.03 0.03 0.04 0.06 0.07 0.08 0.08 0.05 0.03 0.03 0.02 0.02 0.02 0.02 0.05 0.09 0.13 0.16 0.16 0.14 0.15 0.18 0.18 0.20 0.21
0.14 0.15 0.13 0.12 0.11 0.11 0.10 0.07 0.05 0.05 0.05 0.06 0.08 0.07 0.04 0.03 0.05 0.07 0.11 0.12 0.10 0.07 0.06 0.05 0.03 0.02 0.01 0.02 0.06 0.08 0.12 0.17 0.21 0.22 0.20 0.22 0.27 0.29
0.06 0.06 0.06 0.06 0.05 0.06 0.04 0.03 0.02 0.03 0.04 0.05 0.09 0.13 0.12 0.09 0.07 0.09 0.11 0.13 0.12 0.09 0.08 0.08 0.06 0.04 0.02 0.01 0.02 0.03 0.05 0.09 0.15 0.21 0.26 0.26 0.26 0.32
0.02 0.02 0.02 0.02 0.03 0.02 0.03 0.03 0.03 0.04 0.05 0.05 0.08 0.12 0.14 0.13 0.11 0.11 0.13 0.14 0.14 0.13 0.10 0.10 0.08 0.06 0.03 0.01 0.00 0.01 0.01 0.02 0.06 0.13 0.20 0.28 0.33 0.36
0.01 0.01 0.01 0.02 0.02 0.01 0.02 0.03 0.03 0.03 0.02 0.01 0.02 0.03 0.04 0.06 0.07 0.11 0.14 0.15 0.13 0.13 0.09 0.08 0.08 0.07 0.06 0.02 0.01 0.01 0.01 0.01 0.01 0.04 0.10 0.18 0.29 0.40
0.01 0.01 0.01 0.02 0.02 0.02 0.01 0.01 0.02 0.01 0.01 0.00 0.00 0.01 0.01 0.02 0.03 0.05 0.06 0.08 0.08 0.08 0.06 0.06 0.06 0.05 0.05 0.03 0.01 0.01 0.01 0.01 0.01 0.02 0.03 0.08 0.18 0.32
0.01 0.01 0.01 0.02 0.02 0.02 0.01 0.01 0.01 0.00 0.00 0.00 0.00 0.00 0.00 0.00 0.01 0.01 0.01 0.02 0.02 0.03 0.03 0.02 0.03 0.04 0.04 0.03 0.02 0.01 0.01 0.02 0.02 0.02 0.02 0.03 0.06 0.15
0.03 0.05 0.03 0.01 0.01 0.01 0.00 0.00 0.00 0.00 0.00 0.00 0.00 0.00 0.00 0.00 0.00 0.00 0.00 0.00 0.00 0.00 0.00 0.00 0.01 0.02 0.03 0.03 0.02 0.01 0.01 0.01 0.01 0.02 0.02 0.02 0.03 0.06
0.03 0.06 0.05 0.01 0.00 0.00 0.00 0.00 0.00 0.00 0.00 0.00 0.00 0.00 0.00 0.00 0.00 0.00 0.00 0.00 0.00 0.00 0.00 0.00 0.00 0.01 0.02 0.02 0.03 0.02 0.02 0.02 0.01 0.01 0.01 0.01 0.02 0.04
0.03 0.03 0.03 0.02 0.01 0.00 0.00 0.00 0.00 0.00 0.00 0.00 0.00 0.00 0.00 0.00 0.00 0.00 0.00 0.01 0.01 0.00 0.00 0.00 0.00 0.00 0.01 0.02 0.03 0.02 0.02 0.02 0.01 0.01 0.01 0.01 0.01 0.02
0.02 0.01 0.02 0.02 0.01 0.00 0.00 0.00 0.00 0.00 0.00 0.00 0.00 0.00 0.00 0.00 0.00 0.00 0.00 0.01 0.01 0.01 0.00 0.00 0.00 0.01 0.01 0.01 0.01 0.02 0.02 0.02 0.01 0.01 0.02 0.03 0.02 0.01
0.00 0.00 0.00 0.01 0.01 0.00 0.00 0.00 0.00 0.00 0.00 0.00 0.00 0.00 0.00 0.00 0.00 0.00 0.00 0.01 0.01 0.01 0.00 0.00 0.01 0.02 0.03 0.01 0.01 0.01 0.03 0.04 0.03 0.03 0.04 0.05 0.03 0.02
0.00 0.00 0.00 0.00 0.00 0.00 0.00 0.00 0.00 0.00 0.00 0.00 0.00 0.00 0.00 0.01 0.01 0.00 0.00 0.01 0.01 0.01 0.01 0.00 0.01 0.01 0.04 0.05 0.03 0.01 0.02 0.03 0.05 0.06 0.08 0.10 0.09 0.08
0.00 0.00 0.00 0.00 0.00 0.00 0.00 0.00 0.00 0.00 0.00 0.00 0.00 0.00 0.00 0.01 0.01 0.01 0.01 0.01 0.01 0.02 0.01 0.00 0.00 0.01 0.02 0.05 0.08 0.03 0.02 0.04 0.06 0.08 0.09 0.14 0.19 0.18
0.00 0.00 0.00 0.00 0.00 0.00 0.00 0.00 0.00 0.00 0.00 0.00 0.00 0.00 0.00 0.01 0.01 0.01 0.01 0.01 0.01 0.01 0.01 0.01 0.00 0.01 0.03 0.09 0.10 0.06 0.05 0.07 0.10 0.13 0.15 0.15 0.20 0.23
0.00 0.00 0.00 0.00 0.00 0.00 0.00 0.00 0.00 0.00 0.00 0.00 0.00 0.00 0.00 0.01 0.01 0.01 0.01 0.02 0.02 0.02 0.01 0.02 0.02 0.03 0.06 0.09 0.12 0.12 0.10 0.10 0.10 0.12 0.14 0.15 0.14 0.16

GEFSNE_prec_meanprecacc_030.txt.gz
Total_Precipitation_Accumulation
0.16 0.16 0.15 0.13 0.11 0.08 0.05 0.05 0.05 0.04 0.02 0.01 0.01 0.02 0.05 0.07 0.10 0.10 0.10 0.12 0.11 0.12 0.18 0.22 0.23 0.21 0.18 0.14 0.10 0.11 0.17 0.29 0.38 0.39 0.35 0.28 0.24 0.24
0.17 0.18 0.18 0.18 0.16 0.13 0.10 0.07 0.05 0.05 0.03 0.02 0.02 0.02 0.05 0.07 0.10 0.10 0.10 0.11 0.11 0.13 0.14 0.16 0.20 0.22 0.20 0.15 0.11 0.09 0.11 0.18 0.28 0.37 0.40 0.39 0.35 0.32
0.21 0.21 0.21 0.20 0.21 0.20 0.17 0.13 0.09 0.07 0.05 0.03 0.02 0.03 0.06 0.09 0.09 0.09 0.09 0.09 0.10 0.12 0.12 0.12 0.12 0.15 0.16 0.14 0.11 0.09 0.11 0.14 0.20 0.32 0.46 0.56 0.56 0.49
0.29 0.28 0.28 0.27 0.26 0.24 0.24 0.22 0.17 0.12 0.09 0.06 0.02 0.04 0.07 0.11 0.10 0.09 0.08 0.07 0.06 0.08 0.09 0.10 0.10 0.11 0.12 0.12 0.10 0.08 0.08 0.10 0.16 0.26 0.37 0.49 0.61 0.68
0.34 0.36 0.36 0.34 0.32 0.30 0.29 0.29 0.26 0.19 0.14 0.10 0.06 0.05 0.08 0.11 0.12 0.09 0.08 0.07 0.06 0.07 0.08 0.09 0.11 0.12 0.11 0.11 0.09 0.07 0.06 0.07 0.10 0.15 0.23 0.32 0.40 0.50
0.38 0.40 0.41 0.40 0.39 0.36 0.33 0.32 0.31 0.27 0.21 0.15 0.12 0.10 0.10 0.13 0.14 0.12 0.09 0.09 0.09 0.08 0.05 0.05 0.07 0.09 0.10 0.11 0.09 0.07 0.06 0.07 0.08 0.10 0.15 0.19 0.22 0.26
0.40 0.42 0.44 0.45 0.46 0.43 0.35 0.31 0.31 0.31 0.28 0.21 0.16 0.13 0.12 0.16 0.20 0.17 0.14 0.10 0.09 0.08 0.06 0.04 0.04 0.05 0.06 0.09 0.12 0.12 0.11 0.09 0.09 0.11 0.13 0.17 0.19 0.18
0.32 0.33 0.34 0.37 0.41 0.45 0.41 0.32 0.28 0.28 0.29 0.25 0.20 0.17 0.14 0.16 0.22 0.25 0.22 0.17 0.12 0.08 0.05 0.04 0.03 0.03 0.03 0.05 0.10 0.14 0.16 0.16 0.15 0.15 0.18 0.18 0.20 0.21
0.17 0.18 0.18 0.20 0.23 0.26 0.27 0.23 0.21 0.22 0.25 0.27 0.27 0.23 0.17 0.16 0.20 0.25 0.28 0.26 0.16 0.10 0.08 0.07 0.04 0.03 0.02 0.03 0.06 0.08 0.12 0.17 0.21 0.22 0.20 0.22 0.27 0.29
0.07 0.09 0.10 0.11 0.12 0.15 0.15 0.13 0.13 0.15 0.18 0.21 0.27 0.30 0.26 0.21 0.20 0.25 0.28 0.29 0.27 0.20 0.14 0.13 0.09 0.06 0.03 0.02 0.02 0.03 0.05 0.09 0.15 0.21 0.26 0.26 0.26 0.32
0.03 0.04 0.06 0.06 0.07 0.07 0.10 0.12 0.11 0.14 0.15 0.17 0.20 0.23 0.25 0.24 0.22 0.23 0.28 0.31 0.32 0.30 0.26 0.22 0.16 0.12 0.07 0.03 0.02 0.01 0.01 0.02 0.06 0.13 0.20 0.28 0.33 0.36
0.02 0.04 0.09 0.09 0.07 0.04 0.07 0.10 0.10 0.11 0.08 0.08 0.08 0.08 0.09 0.12 0.15 0.21 0.26 0.28 0.30 0.31 0.28 0.27 0.26 0.21 0.16 0.08 0.03 0.02 0.01 0.01 0.01 0.04 0.10 0.18 0.29 0.40
0.04 0.06 0.10 0.11 0.07 0.05 0.05 0.06 0.07 0.05 0.04 0.04 0.04 0.03 0.03 0.05 0.09 0.14 0.18 0.20 0.21 0.24 0.23 0.21 0.24 0.25 0.21 0.14 0.06 0.02 0.01 0.01 0.01 0.02 0.03 0.08 0.18 0.32
0.05 0.07 0.12 0.11 0.06 0.04 0.02 0.03 0.02 0.01 0.01 0.01 0.01 0.01 0.02 0.03 0.05 0.07 0.09 0.11 0.13 0.16 0.16 0.14 0.15 0.16 0.16 0.14 0.09 0.03 0.02 0.02 0.02 0.02 0.02 0.03 0.06 0.15
0.12 0.17 0.11 0.04 0.02 0.02 0.01 0.00 0.00 0.00 0.00 0.00 0.00 0.00 0.00 0.01 0.01 0.02 0.03 0.04 0.05 0.05 0.06 0.06 0.08 0.08 0.08 0.09 0.07 0.04 0.02 0.01 0.01 0.02 0.02 0.02 0.03 0.06
0.07 0.14 0.11 0.03 0.01 0.00 0.00 0.00 0.00 0.00 0.00 0.00 0.00 0.00 0.00 0.00 0.00 0.01 0.01 0.01 0.02 0.02 0.01 0.02 0.03 0.04 0.05 0.04 0.03 0.03 0.02 0.02 0.01 0.01 0.01 0.01 0.02 0.04
0.05 0.05 0.06 0.03 0.01 0.00 0.00 0.00 0.00 0.00 0.00 0.00 0.00 0.00 0.00 0.00 0.00 0.00 0.01 0.01 0.01 0.01 0.00 0.00 0.00 0.01 0.02 0.02 0.03 0.03 0.02 0.02 0.01 0.01 0.01 0.01 0.01 0.02
0.03 0.02 0.04 0.04 0.02 0.01 0.00 0.00 0.00 0.00 0.00 0.00 0.00 0.00 0.00 0.00 0.00 0.00 0.00 0.01 0.01 0.01 0.00 0.00 0.00 0.01 0.01 0.01 0.01 0.02 0.02 0.02 0.01 0.01 0.02 0.03 0.02 0.01
0.01 0.00 0.01 0.01 0.01 0.01 0.00 0.00 0.00 0.00 0.00 0.00 0.00 0.00 0.00 0.00 0.00 0.00 0.00 0.01 0.01 0.01 0.00 0.00 0.01 0.02 0.03 0.01 0.01 0.01 0.03 0.04 0.03 0.03 0.04 0.05 0.03 0.02
0.00 0.00 0.00 0.00 0.00 0.00 0.00 0.00 0.00 0.00 0.00 0.00 0.00 0.00 0.00 0.01 0.01 0.00 0.00 0.01 0.01 0.01 0.01 0.00 0.01 0.01 0.04 0.05 0.03 0.01 0.02 0.03 0.05 0.06 0.08 0.10 0.09 0.08
0.00 0.00 0.00 0.00 0.00 0.00 0.00 0.00 0.00 0.00 0.00 0.00 0.00 0.00 0.00 0.01 0.01 0.01 0.01 0.01 0.01 0.02 0.01 0.00 0.00 0.01 0.02 0.05 0.08 0.03 0.02 0.04 0.06 0.08 0.09 0.14 0.19 0.18
0.00 0.00 0.00 0.00 0.00 0.00 0.00 0.00 0.00 0.00 0.00 0.00 0.00 0.00 0.00 0.01 0.01 0.01 0.01 0.01 0.01 0.01 0.01 0.01 0.00 0.01 0.03 0.09 0.10 0.06 0.05 0.07 0.10 0.13 0.15 0.15 0.20 0.23
0.00 0.00 0.00 0.00 0.00 0.00 0.00 0.00 0.00 0.00 0.00 0.00 0.00 0.00 0.00 0.01 0.01 0.01 0.01 0.02 0.02 0.02 0.01 0.02 0.02 0.03 0.06 0.09 0.12 0.12 0.10 0.10 0.10 0.12 0.14 0.15 0.14 0.16

GEFSNE_prec_meanprecacc_036.txt.gz
Total_Precipitation_Accumulation
0.17 0.18 0.18 0.16 0.15 0.12 0.10 0.10 0.10 0.07 0.03 0.01 0.02 0.03 0.06 0.08 0.11 0.11 0.11 0.12 0.11 0.13 0.19 0.26 0.29 0.29 0.29 0.30 0.29 0.31 0.37 0.41 0.44 0.43 0.40 0.34 0.30 0.27
0.18 0.20 0.21 0.21 0.20 0.18 0.15 0.12 0.11 0.10 0.06 0.03 0.03 0.03 0.06 0.08 0.12 0.12 0.11 0.12 0.11 0.13 0.15 0.18 0.25 0.31 0.34 0.34 0.31 0.28 0.30 0.31 0.38 0.45 0.51 0.50 0.42 0.36
0.22 0.22 0.23 0.24 0.25 0.25 0.22 0.18 0.14 0.12 0.09 0.04 0.03 0.04 0.08 0.12 0.11 0.12 0.12 0.11 0.10 0.13 0.13 0.14 0.17 0.23 0.29 0.32 0.33 0.32 0.33 0.31 0.33 0.44 0.60 0.67 0.63 0.53
0.31 0.30 0.30 0.29 0.29 0.29 0.29 0.28 0.23 0.17 0.13 0.09 0.04 0.05 0.08 0.14 0.15 0.13 0.11 0.09 0.08 0.10 0.11 0.13 0.15 0.18 0.23 0.29 0.31 0.32 0.32 0.33 0.35 0.39 0.48 0.56 0.65 0.70
0.35 0.38 0.39 0.37 0.36 0.34 0.34 0.34 0.31 0.24 0.18 0.14 0.10 0.08 0.10 0.15 0.18 0.16 0.14 0.12 0.10 0.11 0.12 0.14 0.18 0.20 0.21 0.24 0.26 0.29 0.29 0.30 0.30 0.32 0.35 0.38 0.43 0.51
0.40 0.43 0.45 0.46 0.45 0.42 0.39 0.38 0.37 0.33 0.26 0.20 0.17 0.15 0.15 0.18 0.23 0.20 0.16 0.15 0.15 0.13 0.12 0.12 0.15 0.19 0.21 0.21 0.20 0.21 0.25 0.32 0.33 0.30 0.29 0.26 0.25 0.28
0.40 0.44 0.46 0.51 0.55 0.54 0.48 0.40 0.38 0.38 0.35 0.30 0.25 0.21 0.21 0.26 0.32 0.29 0.24 0.18 0.18 0.18 0.13 0.09 0.10 0.11 0.16 0.22 0.26 0.27 0.26 0.26 0.28 0.29 0.26 0.25 0.23 0.20
0.33 0.35 0.36 0.41 0.47 0.55 0.55 0.45 0.38 0.38 0.40 0.39 0.36 0.34 0.31 0.32 0.40 0.44 0.39 0.30 0.25 0.20 0.16 0.14 0.11 0.11 0.12 0.15 0.25 0.29 0.30 0.29 0.27 0.27 0.28 0.26 0.24 0.23
0.19 0.21 0.22 0.25 0.29 0.33 0.36 0.35 0.33 0.35 0.40 0.45 0.49 0.47 0.43 0.41 0.46 0.51 0.53 0.45 0.31 0.24 0.20 0.25 0.22 0.17 0.15 0.19 0.26 0.25 0.27 0.30 0.32 0.30 0.26 0.27 0.30 0.31
0.11 0.13 0.16 0.17 0.19 0.22 0.23 0.24 0.25 0.27 0.34 0.40 0.52 0.57 0.53 0.51 0.55 0.62 0.67 0.65 0.56 0.40 0.26 0.30 0.33 0.27 0.22 0.21 0.21 0.19 0.19 0.20 0.24 0.28 0.31 0.29 0.28 0.33
0.09 0.12 0.15 0.15 0.15 0.13 0.17 0.20 0.20 0.23 0.27 0.33 0.40 0.47 0.51 0.57 0.62 0.68 0.73 0.75 0.80 0.75 0.53 0.39 0.37 0.33 0.29 0.27 0.21 0.15 0.12 0.11 0.13 0.18 0.24 0.31 0.35 0.37
0.07 0.12 0.22 0.21 0.13 0.08 0.12 0.15 0.16 0.17 0.16 0.16 0.17 0.23 0.32 0.43 0.56 0.69 0.77 0.77 0.80 0.85 0.73 0.56 0.46 0.38 0.37 0.29 0.19 0.13 0.09 0.08 0.07 0.08 0.13 0.20 0.30 0.41
0.09 0.14 0.23 0.21 0.10 0.07 0.06 0.09 0.12 0.08 0.07 0.08 0.09 0.12 0.20 0.30 0.43 0.59 0.70 0.72 0.69 0.73 0.68 0.54 0.50 0.42 0.35 0.30 0.18 0.10 0.07 0.05 0.05 0.05 0.06 0.10 0.19 0.32
0.12 0.13 0.19 0.16 0.07 0.04 0.03 0.04 0.02 0.01 0.02 0.03 0.04 0.07 0.12 0.21 0.31 0.43 0.55 0.61 0.62 0.60 0.53 0.43 0.38 0.32 0.28 0.24 0.19 0.11 0.07 0.05 0.04 0.04 0.03 0.04 0.07 0.16
0.18 0.23 0.15 0.06 0.02 0.02 0.01 0.00 0.00 0.00 0.00 0.01 0.02 0.03 0.07 0.12 0.18 0.24 0.33 0.42 0.44 0.43 0.40 0.36 0.32 0.27 0.22 0.20 0.15 0.10 0.07 0.04 0.03 0.03 0.03 0.03 0.03 0.07
0.09 0.16 0.13 0.04 0.01 0.00 0.00 0.00 0.00 0.00 0.00 0.00 0.01 0.01 0.02 0.04 0.08 0.12 0.17 0.24 0.27 0.30 0.29 0.28 0.27 0.25 0.22 0.18 0.14 0.11 0.07 0.05 0.03 0.02 0.02 0.02 0.02 0.04
0.06 0.06 0.06 0.04 0.01 0.00 0.00 0.00 0.00 0.00 0.00 0.00 0.00 0.01 0.01 0.02 0.04 0.06 0.09 0.12 0.15 0.16 0.17 0.18 0.18 0.17 0.16 0.15 0.14 0.12 0.08 0.05 0.03 0.02 0.02 0.01 0.01 0.02
0.03 0.02 0.04 0.04 0.02 0.01 0.00 0.00 0.00 0.00 0.00 0.00 0.00 0.00 0.01 0.01 0.02 0.02 0.04 0.06 0.07 0.08 0.08 0.08 0.09 0.09 0.09 0.08 0.07 0.07 0.05 0.04 0.02 0.02 0.02 0.03 0.02 0.01
0.01 0.00 0.01 0.01 0.02 0.01 0.00 0.00 0.00 0.00 0.00 0.00 0.00 0.00 0.00 0.01 0.01 0.01 0.01 0.02 0.03 0.04 0.04 0.03 0.04 0.05 0.07 0.05 0.03 0.03 0.04 0.04 0.03 0.03 0.04 0.05 0.03 0.02
0.00 0.00 0.00 0.00 0.00 0.00 0.00 0.00 0.00 0.00 0.00 0.00 0.00 0.00 0.00 0.01 0.01 0.01 0.01 0.01 0.01 0.02 0.02 0.02 0.02 0.03 0.05 0.06 0.04 0.01 0.02 0.03 0.05 0.06 0.08 0.10 0.09 0.08
0.00 0.00 0.00 0.00 0.00 0.00 0.00 0.00 0.00 0.00 0.00 0.00 0.00 0.00 0.00 0.01 0.01 0.01 0.01 0.01 0.01 0.02 0.02 0.01 0.01 0.01 0.02 0.05 0.08 0.04 0.02 0.04 0.06 0.08 0.09 0.14 0.19 0.18
0.00 0.00 0.00 0.00 0.00 0.00 0.00 0.00 0.00 0.00 0.00 0.00 0.00 0.00 0.00 0.01 0.01 0.01 0.01 0.01 0.01 0.01 0.01 0.01 0.00 0.01 0.03 0.09 0.10 0.06 0.05 0.07 0.10 0.13 0.15 0.15 0.20 0.23
0.00 0.00 0.00 0.00 0.00 0.00 0.00 0.00 0.00 0.00 0.00 0.00 0.00 0.00 0.00 0.01 0.01 0.01 0.01 0.02 0.02 0.02 0.01 0.02 0.02 0.03 0.06 0.09 0.12 0.12 0.10 0.10 0.10 0.12 0.14 0.15 0.14 0.16

GEFSNE_prec_meanprecacc_042.txt.gz
Total_Precipitation_Accumulation
0.18 0.19 0.19 0.18 0.16 0.15 0.14 0.16 0.16 0.10 0.04 0.02 0.03 0.06 0.08 0.11 0.15 0.15 0.14 0.15 0.14 0.16 0.22 0.30 0.33 0.34 0.36 0.40 0.48 0.64 0.78 0.81 0.75 0.64 0.52 0.42 0.35 0.31
0.19 0.21 0.22 0.22 0.21 0.20 0.18 0.16 0.16 0.15 0.08 0.03 0.04 0.07 0.11 0.12 0.16 0.16 0.14 0.15 0.14 0.15 0.17 0.20 0.27 0.34 0.39 0.41 0.40 0.43 0.56 0.66 0.71 0.75 0.75 0.68 0.57 0.49
0.23 0.24 0.24 0.24 0.27 0.26 0.24 0.22 0.19 0.17 0.13 0.05 0.03 0.06 0.13 0.18 0.16 0.15 0.15 0.13 0.12 0.14 0.14 0.14 0.18 0.24 0.32 0.38 0.40 0.41 0.48 0.54 0.60 0.71 0.89 0.92 0.85 0.72
0.32 0.31 0.31 0.31 0.31 0.31 0.32 0.31 0.27 0.22 0.19 0.12 0.05 0.06 0.10 0.17 0.20 0.18 0.15 0.12 0.09 0.12 0.12 0.14 0.15 0.18 0.24 0.31 0.36 0.38 0.43 0.49 0.54 0.60 0.72 0.81 0.88 0.92
0.37 0.40 0.40 0.39 0.38 0.37 0.38 0.39 0.36 0.28 0.23 0.18 0.12 0.08 0.11 0.16 0.21 0.20 0.18 0.15 0.12 0.13 0.13 0.15 0.18 0.20 0.21 0.24 0.29 0.33 0.35 0.37 0.42 0.55 0.68 0.69 0.67 0.71
0.41 0.44 0.46 0.48 0.48 0.47 0.46 0.45 0.42 0.37 0.30 0.24 0.19 0.16 0.15 0.19 0.25 0.23 0.20 0.18 0.17 0.15 0.13 0.12 0.16 0.20 0.21 0.21 0.21 0.24 0.32 0.45 0.50 0.52 0.60 0.59 0.53 0.48
0.42 0.45 0.48 0.54 0.60 0.63 0.59 0.51 0.43 0.42 0.39 0.34 0.28 0.23 0.21 0.26 0.33 0.31 0.27 0.21 0.21 0.19 0.15 0.10 0.10 0.11 0.16 0.23 0.28 0.29 0.30 0.34 0.42 0.49 0.54 0.59 0.55 0.48
0.35 0.36 0.38 0.44 0.51 0.58 0.62 0.53 0.46 0.47 0.47 0.44 0.40 0.37 0.33 0.33 0.41 0.45 0.42 0.34 0.28 0.22 0.18 0.16 0.12 0.12 0.13 0.16 0.27 0.31 0.34 0.36 0.37 0.42 0.49 0.54 0.57 0.56
0.22 0.23 0.25 0.29 0.33 0.35 0.40 0.39 0.40 0.43 0.48 0.53 0.56 0.54 0.47 0.43 0.47 0.53 0.56 0.49 0.34 0.27 0.23 0.28 0.25 0.20 0.17 0.22 0.30 0.30 0.32 0.36 0.39 0.41 0.41 0.46 0.54 0.60
0.18 0.21 0.22 0.24 0.25 0.26 0.26 0.28 0.30 0.33 0.41 0.48 0.60 0.64 0.59 0.55 0.57 0.65 0.71 0.69 0.61 0.46 0.33 0.36 0.41 0.37 0.31 0.30 0.32 0.29 0.28 0.29 0.32 0.37 0.42 0.43 0.44 0.51
0.17 0.23 0.26 0.23 0.21 0.15 0.19 0.24 0.24 0.27 0.31 0.37 0.44 0.52 0.55 0.60 0.66 0.72 0.78 0.82 0.88 0.86 0.64 0.48 0.49 0.48 0.48 0.47 0.44 0.36 0.30 0.26 0.25 0.29 0.35 0.41 0.46 0.48
0.11 0.18 0.31 0.28 0.17 0.10 0.13 0.18 0.19 0.21 0.19 0.18 0.20 0.26 0.35 0.46 0.61 0.76 0.86 0.88 0.93 1.00 0.90 0.69 0.59 0.52 0.58 0.56 0.44 0.36 0.31 0.30 0.26 0.23 0.25 0.30 0.38 0.47
0.12 0.19 0.29 0.25 0.12 0.08 0.07 0.11 0.15 0.11 0.09 0.11 0.12 0.15 0.22 0.33 0.49 0.69 0.83 0.87 0.87 0.92 0.88 0.72 0.65 0.53 0.48 0.52 0.43 0.35 0.28 0.24 0.22 0.21 0.19 0.21 0.27 0.37
0.16 0.16 0.22 0.17 0.08 0.05 0.03 0.04 0.03 0.02 0.03 0.04 0.05 0.09 0.15 0.27 0.39 0.54 0.71 0.80 0.83 0.83 0.76 0.63 0.53 0.41 0.35 0.34 0.37 0.36 0.30 0.24 0.19 0.16 0.14 0.15 0.16 0.24
0.21 0.25 0.16 0.06 0.02 0.02 0.01 0.00 0.00 0.00 0.01 0.02 0.03 0.06 0.11 0.19 0.26 0.35 0.48 0.62 0.68 0.70 0.66 0.60 0.53 0.41 0.31 0.27 0.24 0.24 0.27 0.27 0.22 0.18 0.16 0.13 0.10 0.12
0.09 0.17 0.13 0.04 0.01 0.00 0.00 0.00 0.00 0.00 0.00 0.01 0.02 0.03 0.05 0.08 0.15 0.23 0.32 0.45 0.54 0.63 0.65 0.62 0.61 0.55 0.44 0.32 0.23 0.21 0.20 0.23 0.22 0.18 0.16 0.13 0.11 0.10
0.06 0.06 0.06 0.04 0.01 0.00 0.00 0.00 0.00 0.00 0.00 0.00 0.01 0.02 0.03 0.05 0.10 0.16 0.23 0.31 0.41 0.50 0.57 0.63 0.63 0.61 0.58 0.49 0.40 0.31 0.23 0.20 0.19 0.16 0.14 0.12 0.09 0.07
0.03 0.02 0.04 0.04 0.02 0.01 0.00 0.00 0.00 0.00 0.00 0.00 0.00 0.01 0.02 0.03 0.06 0.10 0.15 0.22 0.30 0.35 0.39 0.46 0.51 0.50 0.53 0.58 0.49 0.35 0.25 0.20 0.17 0.15 0.12 0.11 0.09 0.06
0.01 0.00 0.01 0.01 0.02 0.01 0.00 0.00 0.00 0.00 0.00 0.00 0.00 0.00 0.01 0.02 0.04 0.06 0.10 0.15 0.20 0.25 0.28 0.30 0.34 0.35 0.34 0.38 0.43 0.33 0.24 0.19 0.15 0.13 0.12 0.11 0.08 0.06
0.00 0.00 0.00 0.00 0.00 0.00 0.00 0.00 0.00 0.00 0.00 0.00 0.00 0.00 0.01 0.01 0.02 0.03 0.06 0.09 0.13 0.17 0.19 0.21 0.24 0.27 0.25 0.20 0.19 0.21 0.19 0.15 0.13 0.12 0.13 0.14 0.12 0.10
0.00 0.00 0.00 0.00 0.00 0.00 0.00 0.00 0.00 0.00 0.00 0.00 0.00 0.00 0.00 0.01 0.01 0.02 0.03 0.05 0.08 0.11 0.13 0.14 0.17 0.18 0.18 0.17 0.17 0.14 0.11 0.12 0.12 0.12 0.12 0.16 0.20 0.19
0.00 0.00 0.00 0.00 0.00 0.00 0.00 0.00 0.00 0.00 0.00 0.00 0.00 0.00 0.00 0.01 0.01 0.01 0.02 0.03 0.05 0.06 0.08 0.08 0.08 0.10 0.14 0.19 0.20 0.14 0.10 0.11 0.13 0.15 0.16 0.16 0.20 0.23
0.00 0.00 0.00 0.00 0.00 0.00 0.00 0.00 0.00 0.00 0.00 0.00 0.00 0.00 0.00 0.01 0.01 0.01 0.02 0.02 0.03 0.04 0.05 0.05 0.05 0.07 0.11 0.15 0.17 0.16 0.13 0.12 0.11 0.12 0.15 0.15 0.15 0.16

GEFSNE_prec_meanprecacc_048.txt.gz
Total_Precipitation_Accumulation
0.18 0.19 0.21 0.20 0.18 0.17 0.17 0.20 0.23 0.15 0.05 0.02 0.04 0.06 0.10 0.13 0.19 0.23 0.23 0.26 0.25 0.24 0.29 0.34 0.36 0.37 0.42 0.57 0.96 1.37 1.56 1.54 1.30 1.00 0.76 0.59 0.46 0.38
0.20 0.22 0.23 0.23 0.22 0.21 0.19 0.18 0.20 0.21 0.13 0.04 0.05 0.08 0.12 0.14 0.19 0.21 0.21 0.25 0.25 0.25 0.24 0.25 0.30 0.37 0.42 0.46 0.57 0.91 1.23 1.37 1.38 1.29 1.15 0.95 0.77 0.63
0.24 0.25 0.25 0.25 0.28 0.28 0.26 0.24 0.21 0.22 0.18 0.07 0.04 0.07 0.14 0.20 0.20 0.20 0.21 0.21 0.23 0.26 0.24 0.21 0.22 0.27 0.35 0.41 0.46 0.62 0.95 1.16 1.23 1.31 1.42 1.33 1.14 0.93
0.34 0.33 0.32 0.32 0.32 0.32 0.34 0.34 0.29 0.25 0.23 0.15 0.06 0.06 0.12 0.20 0.24 0.23 0.22 0.19 0.19 0.23 0.23 0.22 0.20 0.22 0.27 0.33 0.39 0.45 0.63 0.89 1.07 1.11 1.21 1.23 1.22 1.19
0.40 0.42 0.42 0.41 0.40 0.39 0.41 0.42 0.39 0.31 0.26 0.22 0.13 0.09 0.12 0.18 0.25 0.26 0.26 0.24 0.23 0.24 0.23 0.24 0.26 0.25 0.24 0.27 0.31 0.38 0.42 0.51 0.71 0.94 1.10 1.10 1.00 0.99
0.45 0.48 0.50 0.51 0.51 0.51 0.52 0.50 0.46 0.40 0.33 0.27 0.21 0.17 0.17 0.21 0.28 0.29 0.28 0.28 0.30 0.29 0.26 0.22 0.24 0.26 0.25 0.23 0.22 0.26 0.36 0.52 0.63 0.77 0.93 0.96 0.86 0.75
0.47 0.50 0.52 0.58 0.65 0.70 0.69 0.60 0.49 0.46 0.42 0.37 0.31 0.25 0.23 0.29 0.36 0.36 0.35 0.31 0.33 0.36 0.32 0.23 0.18 0.17 0.19 0.25 0.29 0.31 0.33 0.39 0.48 0.60 0.76 0.88 0.88 0.76
0.41 0.41 0.43 0.48 0.55 0.61 0.67 0.61 0.52 0.54 0.54 0.49 0.44 0.41 0.36 0.36 0.44 0.49 0.48 0.43 0.39 0.36 0.34 0.30 0.22 0.18 0.16 0.17 0.28 0.32 0.35 0.38 0.41 0.48 0.61 0.74 0.85 0.88
0.29 0.29 0.30 0.34 0.37 0.36 0.42 0.41 0.42 0.47 0.54 0.59 0.62 0.59 0.52 0.47 0.50 0.55 0.60 0.56 0.44 0.41 0.39 0.43 0.38 0.28 0.21 0.24 0.32 0.31 0.34 0.37 0.42 0.45 0.49 0.59 0.73 0.87
0.24 0.27 0.27 0.30 0.32 0.28 0.27 0.30 0.32 0.36 0.46 0.53 0.67 0.70 0.64 0.59 0.60 0.67 0.74 0.74 0.68 0.57 0.48 0.51 0.54 0.45 0.36 0.32 0.33 0.30 0.29 0.30 0.34 0.40 0.47 0.52 0.58 0.71
0.21 0.28 0.29 0.25 0.25 0.17 0.19 0.25 0.25 0.28 0.33 0.41 0.48 0.55 0.58 0.63 0.68 0.73 0.81 0.86 0.94 0.95 0.78 0.64 0.63 0.57 0.53 0.50 0.45 0.38 0.31 0.28 0.27 0.31 0.38 0.47 0.55 0.60
0.13 0.23 0.36 0.32 0.20 0.12 0.14 0.19 0.21 0.23 0.20 0.20 0.21 0.27 0.36 0.47 0.62 0.79 0.90 0.92 0.98 1.08 1.02 0.82 0.75 0.62 0.64 0.60 0.46 0.38 0.33 0.34 0.30 0.27 0.29 0.35 0.44 0.52
0.13 0.20 0.30 0.27 0.13 0.09 0.08 0.13 0.18 0.12 0.10 0.11 0.13 0.16 0.23 0.34 0.51 0.72 0.86 0.91 0.91 0.98 0.99 0.84 0.78 0.64 0.54 0.56 0.47 0.39 0.32 0.28 0.26 0.27 0.26 0.28 0.33 0.41
0.16 0.17 0.22 0.18 0.08 0.05 0.04 0.05 0.04 0.02 0.03 0.04 0.06 0.10 0.16 0.29 0.41 0.58 0.75 0.84 0.88 0.90 0.85 0.73 0.64 0.51 0.40 0.36 0.41 0.41 0.35 0.29 0.23 0.21 0.21 0.25 0.26 0.31
0.21 0.25 0.16 0.07 0.03 0.02 0.01 0.01 0.00 0.01 0.01 0.02 0.04 0.07 0.13 0.22 0.29 0.38 0.52 0.67 0.73 0.76 0.75 0.70 0.63 0.52 0.38 0.29 0.25 0.27 0.33 0.36 0.29 0.24 0.21 0.18 0.16 0.18
0.09 0.17 0.13 0.04 0.01 0.00 0.00 0.00 0.00 0.01 0.01 0.02 0.03 0.04 0.06 0.10 0.18 0.27 0.37 0.51 0.61 0.71 0.74 0.74 0.74 0.71 0.58 0.39 0.25 0.23 0.23 0.30 0.32 0.26 0.22 0.19 0.16 0.14
0.06 0.06 0.06 0.04 0.01 0.00 0.00 0.00 0.00 0.00 0.00 0.01 0.01 0.02 0.04 0.06 0.13 0.20 0.29 0.39 0.50 0.61 0.69 0.78 0.80 0.81 0.81 0.66 0.48 0.34 0.26 0.24 0.25 0.24 0.21 0.20 0.18 0.15
0.03 0.02 0.04 0.04 0.02 0.01 0.00 0.00 0.00 0.00 0.00 0.00 0.01 0.02 0.03 0.05 0.09 0.14 0.21 0.30 0.41 0.48 0.54 0.64 0.71 0.72 0.82 0.94 0.77 0.48 0.31 0.26 0.24 0.22 0.19 0.18 0.19 0.17
0.01 0.00 0.01 0.01 0.02 0.01 0.00 0.00 0.00 0.00 0.00 0.00 0.01 0.01 0.02 0.04 0.06 0.10 0.16 0.23 0.32 0.40 0.44 0.49 0.54 0.57 0.59 0.75 0.91 0.65 0.38 0.28 0.24 0.23 0.22 0.19 0.17 0.16
0.00 0.00 0.00 0.00 0.00 0.00 0.00 0.00 0.00 0.00 0.00 0.00 0.00 0.01 0.01 0.02 0.04 0.06 0.11 0.17 0.24 0.31 0.35 0.40 0.47 0.52 0.48 0.42 0.50 0.63 0.51 0.32 0.22 0.22 0.26 0.28 0.25 0.21
0.01 0.01 0.00 0.00 0.00 0.00 0.00 0.00 0.00 0.00 0.00 0.00 0.00 0.00 0.01 0.01 0.03 0.04 0.07 0.12 0.17 0.23 0.27 0.32 0.40 0.43 0.44 0.39 0.38 0.44 0.48 0.43 0.29 0.22 0.21 0.26 0.32 0.30
0.01 0.01 0.01 0.00 0.00 0.00 0.00 0.00 0.00 0.00 0.00 0.00 0.00 0.00 0.00 0.01 0.02 0.03 0.05 0.08 0.12 0.17 0.21 0.25 0.27 0.32 0.40 0.47 0.49 0.43 0.40 0.43 0.43 0.34 0.26 0.21 0.24 0.28
0.03 0.03 0.02 0.01 0.01 0.00 0.00 0.00 0.00 0.00 0.00 0.00 0.00 0.00 0.00 0.01 0.01 0.02 0.04 0.05 0.08 0.11 0.15 0.19 0.21 0.25 0.34 0.42 0.47 0.45 0.38 0.34 0.31 0.29 0.31 0.26 0.20 0.19

GEFSNE_prec_meanprecacc_054.txt.gz
Total_Precipitation_Accumulation
0.20 0.21 0.23 0.21 0.20 0.19 0.20 0.25 0.29 0.19 0.06 0.02 0.04 0.07 0.10 0.14 0.20 0.24 0.24 0.30 0.32 0.32 0.36 0.40 0.40 0.39 0.48 0.73 1.37 2.09 2.51 2.41 1.97 1.46 1.08 0.86 0.70 0.62
0.23 0.25 0.26 0.26 0.24 0.23 0.22 0.22 0.25 0.27 0.16 0.05 0.05 0.08 0.12 0.14 0.20 0.22 0.22 0.27 0.30 0.32 0.32 0.31 0.36 0.41 0.45 0.52 0.75 1.34 1.92 2.28 2.27 2.00 1.66 1.33 1.08 0.91
0.28 0.31 0.29 0.29 0.32 0.31 0.29 0.27 0.25 0.26 0.22 0.07 0.04 0.07 0.14 0.20 0.20 0.21 0.22 0.23 0.26 0.32 0.33 0.29 0.29 0.33 0.38 0.44 0.53 0.83 1.38 1.82 2.11 2.20 2.16 1.88 1.56 1.26
0.39 0.38 0.37 0.36 0.36 0.36 0.38 0.37 0.32 0.28 0.27 0.17 0.06 0.06 0.12 0.20 0.24 0.24 0.23 0.21 0.22 0.27 0.31 0.31 0.29 0.30 0.32 0.37 0.44 0.55 0.88 1.33 1.70 1.92 2.04 1.93 1.72 1.57
0.45 0.48 0.48 0.46 0.44 0.42 0.44 0.44 0.41 0.33 0.29 0.24 0.14 0.10 0.13 0.19 0.25 0.27 0.27 0.26 0.25 0.28 0.29 0.33 0.35 0.35 0.33 0.33 0.36 0.43 0.54 0.78 1.12 1.53 1.81 1.81 1.62 1.48
0.49 0.53 0.56 0.59 0.58 0.57 0.57 0.54 0.49 0.43 0.35 0.29 0.23 0.18 0.18 0.22 0.29 0.30 0.29 0.29 0.33 0.33 0.32 0.31 0.35 0.37 0.37 0.32 0.28 0.30 0.43 0.66 0.90 1.19 1.51 1.62 1.47 1.28
0.50 0.54 0.58 0.64 0.74 0.79 0.80 0.69 0.53 0.49 0.45 0.39 0.33 0.27 0.26 0.31 0.38 0.38 0.37 0.33 0.36 0.42 0.39 0.32 0.29 0.28 0.31 0.36 0.38 0.38 0.39 0.47 0.62 0.87 1.18 1.45 1.51 1.30
0.43 0.43 0.46 0.51 0.58 0.64 0.71 0.65 0.55 0.58 0.59 0.52 0.47 0.44 0.39 0.38 0.45 0.50 0.50 0.46 0.42 0.43 0.43 0.41 0.36 0.34 0.32 0.31 0.39 0.40 0.42 0.46 0.51 0.63 0.87 1.15 1.39 1.45
0.30 0.31 0.32 0.37 0.41 0.39 0.42 0.42 0.43 0.49 0.58 0.62 0.65 0.62 0.55 0.49 0.52 0.56 0.61 0.59 0.48 0.48 0.49 0.56 0.55 0.48 0.42 0.42 0.45 0.39 0.40 0.44 0.51 0.57 0.65 0.86 1.13 1.37
0.25 0.28 0.28 0.32 0.37 0.33 0.28 0.30 0.33 0.36 0.48 0.56 0.70 0.74 0.68 0.62 0.62 0.69 0.75 0.76 0.71 0.64 0.58 0.65 0.71 0.65 0.60 0.54 0.49 0.39 0.36 0.35 0.40 0.50 0.61 0.72 0.87 1.11
0.21 0.29 0.31 0.27 0.29 0.21 0.20 0.26 0.26 0.29 0.34 0.43 0.50 0.57 0.59 0.64 0.70 0.75 0.81 0.87 0.97 1.02 0.88 0.76 0.80 0.76 0.76 0.72 0.62 0.49 0.39 0.33 0.32 0.38 0.50 0.63 0.79 0.94
0.14 0.23 0.36 0.33 0.22 0.14 0.15 0.20 0.23 0.24 0.21 0.20 0.22 0.27 0.36 0.48 0.63 0.80 0.92 0.94 1.01 1.14 1.12 0.93 0.90 0.80 0.85 0.83 0.63 0.48 0.41 0.40 0.36 0.34 0.38 0.49 0.62 0.78
0.13 0.20 0.31 0.28 0.14 0.11 0.09 0.14 0.21 0.14 0.11 0.12 0.13 0.16 0.24 0.34 0.51 0.72 0.88 0.94 0.95 1.03 1.07 0.93 0.91 0.81 0.72 0.77 0.65 0.51 0.40 0.34 0.31 0.33 0.35 0.40 0.49 0.59
0.16 0.17 0.22 0.18 0.08 0.05 0.04 0.06 0.05 0.03 0.04 0.05 0.07 0.10 0.17 0.29 0.42 0.59 0.76 0.85 0.90 0.93 0.91 0.81 0.74 0.64 0.54 0.52 0.57 0.55 0.45 0.36 0.29 0.25 0.27 0.36 0.42 0.50
0.21 0.26 0.16 0.07 0.03 0.02 0.01 0.01 0.01 0.01 0.02 0.03 0.05 0.08 0.13 0.23 0.30 0.38 0.53 0.68 0.74 0.78 0.81 0.76 0.70 0.62 0.50 0.41 0.38 0.40 0.43 0.46 0.37 0.29 0.26 0.26 0.27 0.32
0.10 0.17 0.13 0.04 0.01 0.00 0.00 0.00 0.00 0.01 0.02 0.03 0.04 0.05 0.07 0.11 0.18 0.28 0.38 0.52 0.62 0.72 0.78 0.79 0.81 0.80 0.68 0.50 0.36 0.33 0.33 0.39 0.40 0.31 0.26 0.25 0.23 0.22
0.08 0.06 0.06 0.04 0.01 0.00 0.00 0.00 0.00 0.01 0.01 0.02 0.02 0.03 0.04 0.07 0.13 0.21 0.30 0.40 0.52 0.63 0.73 0.83 0.88 0.90 0.93 0.81 0.61 0.46 0.35 0.31 0.32 0.29 0.25 0.24 0.25 0.22
0.04 0.03 0.04 0.04 0.02 0.01 0.00 0.00 0.00 0.00 0.01 0.01 0.02 0.03 0.04 0.06 0.10 0.15 0.22 0.32 0.43 0.51 0.58 0.71 0.78 0.81 0.95 1.14 0.99 0.62 0.40 0.33 0.30 0.28 0.23 0.21 0.25 0.26
0.01 0.01 0.01 0.02 0.02 0.01 0.00 0.00 0.00 0.00 0.00 0.01 0.01 0.02 0.03 0.04 0.07 0.11 0.17 0.24 0.34 0.43 0.49 0.55 0.63 0.66 0.71 0.93 1.16 0.87 0.50 0.35 0.30 0.30 0.29 0.23 0.21 0.23
0.01 0.01 0.01 0.01 0.01 0.01 0.00 0.00 0.00 0.00 0.00 0.00 0.01 0.01 0.02 0.03 0.05 0.08 0.12 0.19 0.26 0.34 0.40 0.46 0.56 0.62 0.59 0.55 0.66 0.85 0.72 0.43 0.29 0.29 0.35 0.36 0.31 0.27
0.02 0.02 0.02 0.02 0.01 0.01 0.00 0.00 0.00 0.00 0.00 0.00 0.00 0.01 0.01 0.02 0.04 0.05 0.08 0.13 0.19 0.26 0.31 0.38 0.49 0.55 0.58 0.52 0.51 0.62 0.72 0.66 0.42 0.29 0.29 0.35 0.40 0.37
0.03 0.03 0.03 0.02 0.02 0.01 0.01 0.00 0.00 0.00 0.00 0.00 0.00 0.00 0.01 0.01 0.03 0.04 0.06 0.09 0.14 0.20 0.26 0.31 0.36 0.44 0.56 0.64 0.66 0.61 0.62 0.71 0.73 0.56 0.37 0.28 0.29 0.32
0.06 0.05 0.04 0.03 0.03 0.02 0.01 0.01 0.00 0.00 0.00 0.00 0.00 0.00 0.01 0.01 0.02 0.03 0.04 0.07 0.10 0.14 0.19 0.25 0.30 0.36 0.51 0.62 0.68 0.65 0.57 0.55 0.57 0.57 0.59 0.45 0.30 0.24

GEFSNE_prec_meanprecacc_060.txt.gz
Total_Precipitation_Accumulation
0.23 0.25 0.28 0.26 0.25 0.24 0.26 0.32 0.38 0.25 0.07 0.02 0.04 0.07 0.10 0.14 0.20 0.24 0.24 0.30 0.32 0.33 0.37 0.42 0.42 0.42 0.50 0.76 1.41 2.19 2.77 2.82 2.44 1.87 1.40 1.16 1.01 0.93
0.26 0.29 0.31 0.31 0.30 0.29 0.29 0.29 0.34 0.37 0.21 0.06 0.06 0.08 0.12 0.14 0.20 0.22 0.22 0.28 0.30 0.33 0.33 0.33 0.38 0.43 0.47 0.55 0.78 1.38 2.07 2.61 2.74 2.50 2.08 1.68 1.43 1.26
0.31 0.35 0.34 0.34 0.37 0.36 0.35 0.33 0.31 0.33 0.29 0.09 0.05 0.08 0.15 0.20 0.20 0.21 0.22 0.23 0.26 0.32 0.34 0.30 0.30 0.35 0.41 0.47 0.56 0.85 1.44 2.02 2.51 2.73 2.69 2.34 1.95 1.62
0.42 0.41 0.41 0.40 0.41 0.41 0.44 0.42 0.36 0.32 0.32 0.19 0.07 0.07 0.12 0.20 0.24 0.24 0.23 0.21 0.22 0.28 0.31 0.32 0.31 0.32 0.35 0.40 0.47 0.57 0.91 1.41 1.94 2.36 2.59 2.46 2.16 1.97
0.47 0.50 0.51 0.50 0.49 0.48 0.51 0.50 0.45 0.37 0.34 0.28 0.16 0.11 0.14 0.21 0.26 0.27 0.27 0.26 0.26 0.29 0.30 0.34 0.37 0.37 0.36 0.36 0.40 0.46 0.56 0.82 1.21 1.78 2.29 2.41 2.19 1.94
0.50 0.54 0.58 0.61 0.63 0.63 0.64 0.61 0.54 0.47 0.38 0.32 0.26 0.21 0.21 0.24 0.30 0.31 0.29 0.30 0.34 0.34 0.33 0.32 0.36 0.40 0.40 0.36 0.31 0.33 0.45 0.69 0.97 1.31 1.77 2.11 2.09 1.88
0.50 0.54 0.58 0.65 0.76 0.85 0.87 0.75 0.57 0.52 0.47 0.41 0.35 0.29 0.28 0.33 0.40 0.39 0.38 0.33 0.37 0.43 0.40 0.33 0.31 0.30 0.34 0.40 0.43 0.41 0.42 0.49 0.66 0.95 1.32 1.72 1.93 1.82
0.44 0.44 0.46 0.52 0.59 0.66 0.74 0.68 0.58 0.61 0.62 0.55 0.48 0.45 0.41 0.40 0.47 0.51 0.52 0.47 0.43 0.45 0.44 0.43 0.39 0.38 0.36 0.35 0.44 0.45 0.46 0.49 0.53 0.67 0.96 1.29 1.61 1.79
0.31 0.32 0.33 0.37 0.42 0.41 0.45 0.43 0.44 0.50 0.60 0.65 0.67 0.64 0.57 0.51 0.54 0.58 0.63 0.61 0.49 0.50 0.51 0.59 0.59 0.52 0.48 0.48 0.52 0.46 0.46 0.48 0.54 0.60 0.70 0.95 1.26 1.57
0.26 0.30 0.29 0.32 0.38 0.37 0.30 0.31 0.33 0.37 0.49 0.58 0.73 0.76 0.70 0.65 0.66 0.72 0.77 0.77 0.72 0.67 0.62 0.69 0.78 0.72 0.67 0.61 0.58 0.49 0.44 0.42 0.44 0.53 0.64 0.77 0.95 1.23
0.23 0.30 0.31 0.28 0.31 0.25 0.21 0.26 0.26 0.30 0.35 0.44 0.52 0.59 0.62 0.68 0.75 0.79 0.84 0.89 1.00 1.07 0.93 0.83 0.89 0.85 0.84 0.81 0.73 0.61 0.50 0.42 0.38 0.43 0.53 0.67 0.84 1.02
0.15 0.24 0.37 0.35 0.25 0.17 0.16 0.21 0.24 0.25 0.22 0.21 0.23 0.28 0.37 0.49 0.66 0.83 0.95 0.97 1.05 1.20 1.18 1.01 1.03 0.93 0.97 0.95 0.77 0.63 0.54 0.52 0.45 0.40 0.42 0.53 0.68 0.85
0.15 0.21 0.31 0.29 0.16 0.12 0.11 0.16 0.24 0.16 0.12 0.13 0.14 0.17 0.24 0.36 0.53 0.74 0.91 0.98 0.99 1.09 1.13 1.02 1.06 0.98 0.87 0.92 0.82 0.68 0.56 0.49 0.41 0.39 0.40 0.45 0.56 0.66
0.18 0.18 0.23 0.19 0.10 0.06 0.05 0.08 0.06 0.04 0.04 0.06 0.08 0.11 0.18 0.30 0.43 0.60 0.78 0.87 0.94 0.98 0.98 0.90 0.90 0.83 0.71 0.68 0.76 0.75 0.65 0.56 0.45 0.35 0.32 0.43 0.51 0.60
0.22 0.27 0.17 0.08 0.03 0.02 0.01 0.01 0.01 0.01 0.02 0.04 0.06 0.10 0.15 0.24 0.31 0.40 0.54 0.69 0.76 0.83 0.87 0.84 0.84 0.80 0.68 0.60 0.60 0.63 0.67 0.69 0.58 0.45 0.37 0.34 0.36 0.43
0.10 0.17 0.13 0.04 0.01 0.00 0.00 0.00 0.00 0.01 0.03 0.04 0.06 0.07 0.08 0.12 0.20 0.30 0.40 0.54 0.64 0.75 0.83 0.86 0.92 0.95 0.86 0.69 0.58 0.57 0.55 0.64 0.64 0.52 0.42 0.36 0.35 0.34
0.09 0.06 0.06 0.04 0.01 0.01 0.00 0.00 0.00 0.01 0.01 0.02 0.04 0.05 0.06 0.09 0.15 0.23 0.33 0.43 0.55 0.66 0.78 0.90 0.98 1.03 1.10 1.01 0.84 0.71 0.58 0.53 0.54 0.51 0.43 0.40 0.42 0.40
0.05 0.03 0.04 0.04 0.03 0.01 0.01 0.00 0.00 0.00 0.01 0.02 0.03 0.04 0.06 0.08 0.12 0.17 0.24 0.34 0.46 0.55 0.63 0.78 0.87 0.92 1.10 1.34 1.24 0.90 0.66 0.57 0.54 0.52 0.44 0.39 0.44 0.48
0.01 0.01 0.02 0.02 0.03 0.02 0.01 0.00 0.00 0.00 0.01 0.01 0.02 0.03 0.04 0.06 0.09 0.13 0.19 0.26 0.36 0.46 0.53 0.62 0.71 0.76 0.85 1.11 1.38 1.14 0.78 0.62 0.55 0.56 0.55 0.43 0.40 0.46
0.01 0.02 0.02 0.02 0.02 0.02 0.01 0.01 0.00 0.00 0.00 0.01 0.02 0.02 0.03 0.05 0.07 0.09 0.14 0.22 0.29 0.37 0.44 0.53 0.64 0.73 0.72 0.71 0.86 1.08 1.03 0.71 0.53 0.54 0.62 0.60 0.53 0.55
0.02 0.02 0.03 0.03 0.02 0.02 0.01 0.01 0.01 0.00 0.00 0.00 0.01 0.02 0.02 0.04 0.05 0.07 0.10 0.15 0.21 0.28 0.35 0.44 0.57 0.65 0.71 0.67 0.68 0.83 0.98 1.00 0.72 0.52 0.51 0.56 0.60 0.58
0.03 0.04 0.03 0.03 0.03 0.02 0.02 0.01 0.01 0.00 0.00 0.00 0.00 0.01 0.01 0.03 0.04 0.06 0.08 0.11 0.16 0.23 0.29 0.36 0.42 0.52 0.68 0.78 0.83 0.80 0.83 0.97 1.04 0.85 0.60 0.46 0.45 0.48
0.06 0.06 0.05 0.05 0.04 0.03 0.02 0.02 0.01 0.01 0.00 0.00 0.00 0.01 0.01 0.02 0.03 0.04 0.06 0.08 0.12 0.16 0.22 0.29 0.35 0.44 0.62 0.76 0.84 0.82 0.75 0.75 0.80 0.83 0.87 0.72 0.52 0.42